DIRECTV 8

Last updated on Tue Sep 22 2026 00:03:10 GMT+0000 (Coordinated Universal Time)

1 28659U 05019A 26264.49130806 -.00000003 00000+0 00000+0 0 9998 2 28659 0.0205 240.5776 0003014 294.7704 242.8566 1.00273205 78032
UTC large
Height (km)
Speed (km/s)
/
Latitude / Longitude
Inclination (degrees)
Orbital Period (minutes)
Azimuth
Elevation
Range (km)
Doppler Factor

Next 0 passes for location: London (51.5072 / 0.1276)

No passes found over London.
DIRECTV 8